Погода в Шицзячжуане

Китай     38°03′59″N   114°31′56″E
темп.,
°C
ветер,
м/с
пор.,
м/с
влажн.,
%
обл.,
%
осадки,
мм/ч
давл.,
гПа
погр.,
м
28 января, чт
чт2823:00+4сз1016190 0.0 10252170
02:00+1сз818150 0.0 10282320
05:00−1сз610120 0.0 10291400
08:00−2з311110 0.0 10321380
11:00+2зсз71270 0.0 10331883
14:00+4ссв3670 0.0 10291596
17:00+3в3380 0.0 1027545
20:00+1ююв25110 0.0 1028244
29 января, пт
пт2923:000сз12160 0.0 102743
02:00−2с23140 0.0 1025128
05:00−2с11160 0.0 102480
08:00−2ссв11160 0.0 102575
11:00+1всв22150 0.0 1023252
14:00+5юв12130 0.0 1019314
17:00+6юв12160 0.0 101939
20:00+4зюз12220 0.0 102037
30 января, сб
сб3023:00+4зсз242799 0.0 102167
02:00+4зсз262752 0.0 1022108
05:00+5зсз415250 0.0 1023398
08:00+2сз253216 0.0 1024115
11:00+8зсз382072 0.0 1025854
14:00+12зсз241545 0.0 10221369
17:00+10ссз12183 0.0 1022125
20:00+6зсз122414 0.0 102441
31 января, вс
вс3123:00+4ссз363052 0.0 1026202
02:00−1с366728 0.0 1026324
05:00−2с247433 0.0 1024278
08:00−3с237717 0.0 1025232
11:000св115836 0.0 1024335
14:00+4в224068 0.0 1020315
17:00+7в24320 0.0 1018137
20:00+4ссз22370 0.0 101853
1 февраля, пн
пн123:00+6зюз413250 0.0 1018302
02:00+5зсз39230 0.0 1018169
05:00+2с23370 0.0 102082
08:00+2зюз14290 0.0 1025173
11:00+3св43130 0.0 10291562
14:00+5сз3670 0.0 10292408
17:00+4зсз5750 0.0 10301691
20:000св2470 0.0 1032314